This is the latest recevied weather packets stored in our database for station/object NC4J. If no packets are shown the sender has not sent any weather packets the latest 10 day(s).
| Time | Temp. | Humidity | Pressure | Rain* | Wind** | Luminosity | Snow |
|---|---|---|---|---|---|---|---|
| 1777639313 | 10.56° C | 68% | 1015.6 hPa | 0 mm | - | 54 W/m² | - |
| 1777639009 | 10.56° C | 71% | 1015.7 hPa | 0 mm | - | 56 W/m² | - |
| 1777638705 | 10.56° C | 71% | 1015.3 hPa | 0 mm | - | 44 W/m² | - |
| 1777638402 | 10° C | 74% | 1015.5 hPa | 0 mm | - | 56 W/m² | - |
| 1777638098 | 10° C | 75% | 1015.5 hPa | 0 mm | - | 68 W/m² | - |
| 1777637795 | 9.44° C | 78% | 1015.4 hPa | 0 mm | - | 64 W/m² | - |
| 1777637491 | 9.44° C | 79% | 1015.4 hPa | 0 mm | - | 45 W/m² | - |
| 1777637188 | 8.89° C | 81% | 1015.6 hPa | 0 mm | - | 47 W/m² | - |
| 1777636885 | 8.89° C | 81% | 1015.7 hPa | 0 mm | - | 22 W/m² | - |
| 1777636581 | 8.33° C | 81% | 1015.6 hPa | 0 mm | - | 26 W/m² | - |
| 1777636278 | 8.33° C | 82% | 1015.3 hPa | 0 mm | - | 23 W/m² | - |
| 1777635977 | 8.33° C | 82% | 1015.6 hPa | 0 mm | - | 27 W/m² | - |
| 1777635674 | 7.78° C | 82% | 1015.5 hPa | 0 mm | - | 26 W/m² | - |
| 1777635370 | 7.78° C | 83% | 1015.5 hPa | 0 mm | - | 20 W/m² | - |
| 1777635067 | 7.78° C | 82% | 1015.4 hPa | 0 mm | - | 18 W/m² | - |
| 1777634763 | 7.78° C | 80% | 1015.4 hPa | 0 mm | - | 14 W/m² | - |
| 1777634461 | 7.78° C | 81% | 1015.4 hPa | 0 mm | - | 13 W/m² | - |
| 1777634157 | 7.78° C | 80% | 1015.4 hPa | 0 mm | - | 9 W/m² | - |
| 1777633854 | 7.78° C | 81% | 1015.5 hPa | 0 mm | - | 8 W/m² | - |
| 1777633552 | 7.78° C | 80% | 1015.3 hPa | 0 mm | - | 8 W/m² | - |
| 1777633249 | 7.78° C | 81% | 1015.3 hPa | 0 mm | - | 5 W/m² | - |
| 1777632947 | 7.78° C | 80% | 1015.2 hPa | 0 mm | - | 4 W/m² | - |
| 1777632643 | 7.78° C | 78% | 1015.1 hPa | 0 mm | - | 3 W/m² | - |
| 1777632339 | 7.78° C | 78% | 1015 hPa | 0 mm | - | 2 W/m² | - |
| 1777632037 | 8.33° C | 78% | 1015 hPa | 0 mm | - | 1 W/m² | - |
* Rain latest hour (hover to see other rain measurements)
** Current wind speed in m/s (hover to see current wind gust speed)